Back to catalog

STARLINK-1448

AliveCommunicationsVLEO
NORAD 45665·PAYLOAD·🇺🇸 United States

Launched Jun 4, 2020 from Cape Canaveral Space Force Station

Loading…

Next Passes (next 24 hours)

TLE

FreshSource: CelesTrak SupGP

Epoch: Sep 14, 2026, 14:15 UTC

1 45665C 20035J   26257.59423611  .00168490  00000+0  48954-3 0  2576
2 45665  53.0326 197.1517 0005938  83.5741 287.9229 15.92064045    17

Track STARLINK-1448 in real time with AllMySat

Download on the App Store